Temp
42 42 41 41 40 39 38 38 39 39 39 39 40 40 40 39 39 38 38 38 38 38
39 39 38 38 38 37 38 40 38 38 38 38 38 38 37 36 36 36 36 36 36 35
38 38 37 37 36 37 37 37 37 36 36 36 36 36 35 34 35 35 34 34 33 33
36 36 36 36 35 35 35 35 35 35 35 34 34 34 33 33 33 32 32 32 31 30
35 34 34 33 33 34 34 34 34 34 33 33 32 32 32 32 31 30 30 30 30 29
34 33 33 32 32 33 33 33 33 33 32 31 31 31 31 30 30 29 29 28 28 28
32 32 32 32 32 32 32 31 31 31 31 31 30 31 31 31 29 28 28 30 28 28
32 31 30 30 30 30 30 30 30 30 29 29 30 32 30 30 29 28 27 29 29 29
31 30 30 29 29 29 29 29 29 29 29 29 32 35 34 31 29 30 29 27 27 27
30 29 29 28 28 28 27 28 27 28 28 28 29 34 33 32 30 28 27 27 28 28
29 28 28 27 27 26 26 26 26 27 27 28 30 33 32 30 28 27 26 26 26 25
29 27 26 26 25 25 25 25 26 28 27 27 29 33 31 30 28 27 26 27 26 26
28 27 26 26 25 26 26 27 28 28 27 27 27 32 30 29 28 26 26 26 26 26
26 26 26 25 25 25 25 26 25 26 25 25 25 28 30 29 27 27 25 25 24 24
MSLP
1021.12 1021.34 1021.71 1022.09 1022.52 1022.88 1023.16 1023.40 1023.49 1023.56 1023.57 1023.60 1023.60 1023.66 1023.69 1023.81 1023.91 1024.02 1023.96 1023.97 1023.99 1024.20
1021.51 1021.60 1021.89 1022.30 1022.69 1023.09 1023.39 1023.51 1023.76 1023.85 1024.00 1024.06 1024.04 1024.07 1024.12 1024.20 1024.28 1024.29 1024.41 1024.55 1024.76 1024.93
1021.83 1021.97 1022.19 1022.51 1022.91 1023.29 1023.60 1023.77 1023.99 1024.18 1024.35 1024.44 1024.41 1024.42 1024.47 1024.63 1024.67 1024.74 1025.03 1025.27 1025.38 1025.55
1021.99 1022.22 1022.42 1022.69 1023.02 1023.32 1023.64 1023.89 1024.12 1024.29 1024.58 1024.78 1024.89 1024.86 1024.94 1025.10 1025.34 1025.52 1025.72 1025.87 1025.97 1026.22
1022.23 1022.52 1022.74 1022.97 1023.26 1023.53 1023.80 1024.02 1024.26 1024.54 1024.83 1025.03 1025.20 1025.28 1025.38 1025.63 1025.98 1026.16 1026.32 1026.40 1026.51 1026.70
1022.26 1022.64 1022.89 1023.17 1023.47 1023.71 1023.96 1024.21 1024.43 1024.70 1025.00 1025.17 1025.32 1025.52 1025.75 1026.03 1026.38 1026.67 1026.82 1026.93 1027.11 1027.33
1021.92 1022.38 1022.74 1023.12 1023.51 1023.93 1024.13 1024.41 1024.67 1024.86 1025.14 1025.38 1025.51 1025.61 1025.88 1026.32 1026.61 1026.83 1027.11 1027.36 1027.61 1027.77
1021.48 1022.11 1022.63 1023.07 1023.39 1023.69 1024.09 1024.39 1024.62 1024.92 1025.22 1025.42 1025.52 1025.57 1025.80 1026.11 1026.53 1026.92 1027.37 1027.64 1027.94 1028.19
1020.97 1021.62 1022.17 1022.69 1023.19 1023.59 1024.00 1024.37 1024.76 1025.17 1025.47 1025.67 1025.71 1025.66 1025.77 1026.11 1026.51 1027.08 1027.58 1027.89 1028.12 1028.51
1020.32 1021.07 1021.75 1022.34 1022.86 1023.29 1023.77 1024.25 1024.70 1025.08 1025.48 1025.74 1025.81 1025.85 1026.12 1026.46 1026.82 1027.06 1027.46 1027.90 1028.07 1028.33
1019.79 1020.43 1021.11 1021.85 1022.48 1023.12 1023.61 1024.08 1024.51 1024.97 1025.28 1025.53 1025.65 1025.95 1026.30 1026.69 1027.18 1027.50 1027.76 1028.00 1028.13 1028.34
1018.97 1019.86 1020.65 1021.39 1021.98 1022.64 1023.24 1023.66 1024.04 1024.45 1024.81 1025.04 1025.16 1025.48 1025.98 1026.40 1027.09 1027.42 1027.63 1027.97 1028.28 1028.32
1018.73 1019.50 1020.18 1020.78 1021.42 1021.98 1022.58 1023.13 1023.62 1024.09 1024.48 1024.92 1025.09 1025.28 1025.89 1026.18 1026.65 1026.92 1027.26 1027.60 1028.10 1028.34
1018.28 1019.02 1019.72 1020.38 1020.95 1021.55 1022.15 1022.73 1023.32 1023.87 1024.44 1024.86 1025.33 1025.48 1025.80 1026.27 1026.64 1026.78 1027.12 1027.44 1027.71 1028.20
Wind_Speed
5 4 4 4 3 3 3 2 2 3 4 4 4 4 4 3 3 4 4 6 5 3
4 6 5 6 5 3 3 3 3 3 4 4 4 4 4 3 4 4 4 5 5 4
5 5 5 5 5 5 3 3 4 4 4 3 4 4 4 3 4 5 4 4 5 5
5 5 5 5 5 5 4 4 4 4 4 3 3 4 4 5 5 6 5 5 6 6
5 5 5 5 4 4 5 3 4 4 4 4 4 4 4 5 5 5 5 5 6 5
6 5 5 5 4 4 5 5 5 5 4 4 4 5 5 5 5 5 5 5 5 5
7 6 6 5 5 5 4 5 5 5 5 4 5 5 5 5 5 5 5 5 5 5
6 6 6 6 5 6 5 5 5 6 5 5 5 4 5 6 6 6 5 5 6 6
8 8 7 6 6 6 5 5 5 5 5 4 3 8 9 7 6 5 5 4 5 4
10 9 8 7 7 7 7 6 5 6 6 5 4 8 8 8 5 5 5 4 3 3
10 10 9 8 8 6 5 6 6 6 6 5 5 9 8 8 5 5 5 4 4 4
11 11 10 10 9 6 6 6 7 8 8 7 6 12 10 8 5 5 5 4 4 3
10 11 11 11 11 8 8 8 7 8 7 7 6 12 10 7 5 5 4 4 5 4
10 10 10 10 7 9 9 8 7 7 7 6 5 6 10 8 4 3 4 3 3 2
Wind_Direction
117 119 114 123 119 113 109 110 71 75 72 68 71 71 73 72 71 64 58 61 58 57
128 126 127 119 116 121 121 128 111 104 92 71 71 76 85 89 86 79 67 64 65 62
153 137 134 132 137 138 129 109 122 110 96 85 75 83 87 82 76 83 68 69 73 59
164 157 145 142 144 143 132 130 130 123 106 84 78 74 87 81 79 84 84 74 76 69
165 160 153 151 150 140 137 126 134 120 110 99 84 75 88 87 92 98 91 82 76 69
179 172 166 157 154 150 142 135 128 127 127 119 108 99 87 95 89 79 77 73 69 64
178 177 171 156 148 146 146 144 143 136 129 124 115 109 103 105 99 89 76 78 70 61
165 162 155 156 157 151 155 158 149 139 135 133 135 132 123 119 111 104 92 85 86 64
165 161 166 161 161 154 149 148 145 142 137 131 117 138 132 121 115 113 114 113 111 100
168 168 168 161 157 158 158 146 152 149 147 137 124 136 125 127 119 118 112 104 106 120
171 171 163 159 161 149 149 156 153 152 146 140 148 142 138 131 117 115 109 115 117 117
173 166 161 165 163 156 151 158 160 162 159 157 156 160 157 154 152 149 138 139 132 124
165 166 172 170 166 165 165 165 166 163 161 155 154 171 163 158 167 172 168 168 163 179
168 170 167 160 160 158 162 158 159 159 153 142 141 179 172 173 176 195 181 206 175 199